{"data":{"norad_id":55297,"epoch":"2026-09-20T23:33:34.772544Z","epoch_age_seconds":51824,"freshness":"FRESH","line1":"1 55297U 23010AE  26263.98165246  .00000555  00000+0  54289-4 0  9990","line2":"2 55297  69.9981 251.9865 0003380 269.2181  90.8591 14.98330320202527","mean_motion":14.9833032,"eccentricity":0.000338,"inclination_deg":69.9981,"raan_deg":251.9865,"arg_perigee_deg":269.2181,"mean_anomaly_deg":90.8591,"bstar":5.4289e-5,"rev_number":20252,"period_min":96.106978600019,"perigee_km":569.70573650833,"apogee_km":574.40406623365,"semimajor_km":6950.191901371,"source":"CELESTRAK","updated_at":"2026-09-21T09:00:33.171242Z"}}